| time (UTC) | temp F | wind direction | speed MPH | gust MPH | rain 1hr in | rain 24hr in | rain mn in | humidity % | barometer mb |
| 20260505183225 | 84 | 85 | 1.0 | 5.0 | 0.00 | 0.00 | 0.00 | 68 | 1003.1 |
| 20260505182721 | 84 | 128 | 1.0 | 3.0 | 0.00 | 0.00 | 0.00 | 68 | 1003.2 |
| 20260505182218 | 84 | 95 | 1.0 | 9.0 | 0.00 | 0.00 | 0.00 | 68 | 1003.1 |
| 20260505181714 | 84 | 64 | 1.0 | 3.0 | 0.00 | 0.00 | 0.00 | 68 | 1003.1 |
| 20260505181212 | 84 | 43 | 1.0 | 6.0 | 0.00 | 0.00 | 0.00 | 67 | 1003.3 |
| 20260505180708 | 85 | 85 | 1.0 | 2.0 | 0.00 | 0.00 | 0.00 | 66 | 1003.1 |
| 20260505180205 | 84 | 46 | 2.0 | 5.0 | 0.00 | 0.00 | 0.00 | 66 | 1003.1 |
| 20260505175701 | 84 | 149 | 1.0 | 3.0 | 0.00 | 0.00 | 0.00 | 67 | 1003.1 |
| 20260505175157 | 83 | 82 | 1.0 | 3.0 | 0.00 | 0.00 | 0.00 | 68 | 1003.3 |
| 20260505174654 | 82 | 81 | 2.0 | 3.0 | 0.00 | 0.00 | 0.00 | 69 | 1003.0 |
| 20260505174150 | 82 | 49 | 3.0 | 7.0 | 0.00 | 0.00 | 0.00 | 69 | 1003.3 |
| 20260505173646 | 82 | 99 | 1.0 | 2.0 | 0.00 | 0.00 | 0.00 | 70 | 1003.2 |
| 20260505173143 | 82 | 112 | 1.0 | 3.0 | 0.00 | 0.00 | 0.00 | 70 | 1003.3 |
| 20260505172641 | 81 | 67 | 2.0 | 3.0 | 0.00 | 0.00 | 0.00 | 70 | 1003.3 |
| 20260505172137 | 81 | 130 | 1.0 | 6.0 | 0.00 | 0.00 | 0.00 | 70 | 1003.2 |
| 20260505171632 | 81 | 140 | 1.0 | 5.0 | 0.00 | 0.00 | 0.00 | 70 | 1003.2 |
| 20260505171130 | 81 | 83 | 0.0 | 3.0 | 0.00 | 0.00 | 0.00 | 71 | 1003.0 |
| 20260505170627 | 81 | 146 | 2.0 | 3.0 | 0.00 | 0.00 | 0.00 | 70 | 1003.5 |
| 20260505170123 | 81 | 108 | 0.0 | 1.0 | 0.00 | 0.00 | 0.00 | 71 | 1003.3 |
| 20260505165618 | 81 | 77 | 2.0 | 3.0 | 0.00 | 0.00 | 0.00 | 71 | 1003.3 |
| 20260505165114 | 81 | 109 | 4.0 | 6.0 | 0.00 | 0.00 | 0.00 | 70 | 1003.2 |
| 20260505164610 | 80 | 95 | 0.0 | 1.0 | 0.00 | 0.00 | 0.00 | 72 | 1003.5 |
| 20260505164108 | 80 | 249 | 2.0 | 3.0 | 0.00 | 0.00 | 0.00 | 72 | 1003.4 |
| 20260505163606 | 79 | 87 | 0.0 | 5.0 | 0.00 | 0.00 | 0.00 | 73 | 1003.5 |
| 20260505163103 | 79 | 102 | 2.0 | 3.0 | 0.00 | 0.00 | 0.00 | 73 | 1003.2 |
| 20260505162600 | 79 | 75 | 1.0 | 3.0 | 0.00 | 0.00 | 0.00 | 73 | 1003.5 |
| 20260505162058 | 79 | 88 | 1.0 | 8.0 | 0.00 | 0.00 | 0.00 | 73 | 1003.1 |
| 20260505161555 | 80 | 125 | 4.0 | 6.0 | 0.00 | 0.00 | 0.00 | 72 | 1003.2 |
| 20260505161052 | 79 | 296 | 1.0 | 3.0 | 0.00 | 0.00 | 0.00 | 73 | 1003.1 |
| 20260505160550 | 78 | 44 | 1.0 | 6.0 | 0.00 | 0.00 | 0.00 | 74 | 1003.0 |
| 20260505153026 | 78 | 45 | 1.0 | 3.0 | 0.00 | 0.00 | 0.00 | 76 | 1002.6 |
| 20260505152523 | 77 | 73 | 1.0 | 6.0 | 0.00 | 0.00 | 0.00 | 77 | 1002.4 |
| 20260505152019 | 77 | 66 | 1.0 | 3.0 | 0.00 | 0.00 | 0.00 | 77 | 1002.8 |
| 20260505151514 | 77 | 199 | 3.0 | 5.0 | 0.00 | 0.00 | 0.00 | 77 | 1002.8 |
| 20260505151012 | 77 | 82 | 2.0 | 7.0 | 0.00 | 0.00 | 0.00 | 77 | 1002.8 |
| 20260505150508 | 77 | 133 | 1.0 | 6.0 | 0.00 | 0.00 | 0.00 | 76 | 1002.8 |
| 20260505140433 | 74 | 101 | 1.0 | 3.0 | 0.00 | 0.00 | 0.00 | 82 | 1003.0 |
| 20260505124847 | 73 | 21 | 2.0 | 8.0 | 0.00 | 0.00 | 0.00 | 84 | 1002.7 |
| 20260505124343 | 72 | 127 | 1.0 | 7.0 | 0.00 | 0.00 | 0.00 | 84 | 1002.7 |
| 20260505123839 | 72 | 151 | 3.0 | 5.0 | 0.00 | 0.00 | 0.00 | 84 | 1002.5 |
| 20260505123336 | 72 | 134 | 2.0 | 6.0 | 0.00 | 0.00 | 0.00 | 84 | 1002.3 |
| 20260505122832 | 73 | 152 | 2.0 | 7.0 | 0.00 | 0.00 | 0.00 | 84 | 1002.4 |
| 20260505122330 | 72 | 73 | 0.0 | 2.0 | 0.00 | 0.00 | 0.00 | 84 | 1002.4 |
| 20260505121826 | 72 | 79 | 1.0 | 2.0 | 0.00 | 0.00 | 0.00 | 84 | 1002.3 |
| 20260505121324 | 72 | 143 | 1.0 | 2.0 | 0.00 | 0.00 | 0.00 | 84 | 1002.2 |
| 20260505120819 | 72 | 208 | 1.0 | 3.0 | 0.00 | 0.00 | 0.00 | 84 | 1002.2 |
| 20260505120316 | 72 | 90 | 1.0 | 1.0 | 0.00 | 0.00 | 0.00 | 84 | 1002.3 |
| 20260505115814 | 72 | 85 | 1.0 | 2.0 | 0.00 | 0.00 | 0.00 | 84 | 1002.1 |
| 20260505115312 | 72 | 105 | 2.0 | 3.0 | 0.00 | 0.00 | 0.00 | 84 | 1002.2 |
| 20260505114809 | 72 | 57 | 1.0 | 2.0 | 0.00 | 0.00 | 0.00 | 84 | 1002.2 |
| 20260505114306 | 72 | 148 | 4.0 | 6.0 | 0.00 | 0.00 | 0.00 | 84 | 1002.0 |
| 20260505113802 | 72 | 159 | 4.0 | 7.0 | 0.00 | 0.00 | 0.00 | 84 | 1002.2 |
| 20260505113259 | 72 | 254 | 1.0 | 6.0 | 0.00 | 0.00 | 0.00 | 84 | 1002.0 |
| 20260505112754 | 72 | 82 | 1.0 | 2.0 | 0.00 | 0.00 | 0.00 | 85 | 1002.0 |
| 20260505112252 | 71 | 123 | 2.0 | 3.0 | 0.00 | 0.00 | 0.00 | 85 | 1001.8 |
| 20260505111747 | 71 | 117 | 1.0 | 2.0 | 0.00 | 0.00 | 0.00 | 86 | 1002.0 |
| 20260505111243 | 71 | 104 | 0.0 | 2.0 | 0.00 | 0.00 | 0.00 | 86 | 1001.8 |
| 20260505110739 | 71 | 79 | 1.0 | 5.0 | 0.00 | 0.00 | 0.00 | 85 | 1001.9 |
| 20260505110237 | 71 | 87 | 1.0 | 3.0 | 0.00 | 0.00 | 0.00 | 85 | 1001.9 |
| 20260505102212 | 72 | 127 | 4.0 | 6.0 | 0.00 | 0.00 | 0.00 | 84 | 1001.9 |
| 20260505101711 | 72 | 116 | 1.0 | 2.0 | 0.00 | 0.00 | 0.00 | 84 | 1001.8 |
| 20260505101206 | 72 | 82 | 0.0 | 3.0 | 0.00 | 0.00 | 0.00 | 84 | 1002.1 |
| 20260505100703 | 72 | 154 | 3.0 | 3.0 | 0.00 | 0.00 | 0.00 | 85 | 1001.9 |
| 20260505100200 | 72 | 79 | 1.0 | 2.0 | 0.00 | 0.00 | 0.00 | 85 | 1002.0 |
| 20260505095655 | 72 | 128 | 2.0 | 3.0 | 0.00 | 0.00 | 0.00 | 85 | 1001.8 |
| 20260505095154 | 72 | 115 | 3.0 | 3.0 | 0.00 | 0.00 | 0.00 | 85 | 1001.9 |
| 20260505094649 | 71 | 69 | 1.0 | 2.0 | 0.00 | 0.00 | 0.00 | 85 | 1002.1 |
| 20260505094146 | 71 | 146 | 5.0 | 8.0 | 0.00 | 0.00 | 0.00 | 85 | 1002.0 |
| 20260505093642 | 71 | 66 | 1.0 | 3.0 | 0.00 | 0.00 | 0.00 | 85 | 1002.1 |
| 20260505093140 | 71 | 95 | 0.0 | 2.0 | 0.00 | 0.00 | 0.00 | 85 | 1002.1 |
| 20260505092636 | 71 | 173 | 2.0 | 3.0 | 0.00 | 0.00 | 0.00 | 85 | 1002.3 |
| 20260505092135 | 71 | 70 | 1.0 | 2.0 | 0.00 | 0.00 | 0.00 | 85 | 1002.2 |
| 20260505091632 | 71 | 80 | 1.0 | 2.0 | 0.00 | 0.00 | 0.00 | 86 | 1002.6 |
| 20260505091130 | 71 | 106 | 1.0 | 3.0 | 0.00 | 0.00 | 0.00 | 86 | 1002.4 |
| 20260505090627 | 71 | 83 | 1.0 | 1.0 | 0.00 | 0.00 | 0.00 | 86 | 1002.4 |
| 20260505090125 | 71 | 118 | 3.0 | 3.0 | 0.00 | 0.00 | 0.00 | 86 | 1002.2 |
| 20260505085622 | 71 | 127 | 1.0 | 2.0 | 0.00 | 0.00 | 0.00 | 86 | 1002.3 |
| 20260505085120 | 71 | 104 | 1.0 | 2.0 | 0.00 | 0.00 | 0.00 | 86 | 1002.3 |
| 20260505084618 | 71 | 107 | 1.0 | 5.0 | 0.00 | 0.00 | 0.00 | 86 | 1002.2 |
| 20260505084116 | 71 | 113 | 1.0 | 2.0 | 0.00 | 0.00 | 0.00 | 85 | 1002.4 |
| 20260505083613 | 71 | 119 | 2.0 | 9.0 | 0.00 | 0.00 | 0.00 | 85 | 1002.5 |
| 20260505083110 | 71 | 88 | 1.0 | 2.0 | 0.00 | 0.00 | 0.00 | 85 | 1002.4 |
| 20260505082605 | 71 | 79 | 1.0 | 5.0 | 0.00 | 0.00 | 0.00 | 85 | 1002.4 |
| 20260505082103 | 71 | 112 | 3.0 | 6.0 | 0.00 | 0.00 | 0.00 | 85 | 1002.4 |
| 20260505081559 | 71 | 97 | 0.0 | 3.0 | 0.00 | 0.00 | 0.00 | 85 | 1002.4 |
| 20260505081056 | 71 | 151 | 1.0 | 6.0 | 0.00 | 0.00 | 0.00 | 84 | 1002.3 |
| 20260505080552 | 71 | 134 | 2.0 | 3.0 | 0.00 | 0.00 | 0.00 | 84 | 1002.3 |
| 20260505080049 | 71 | 159 | 1.0 | 3.0 | 0.00 | 0.00 | 0.00 | 84 | 1002.6 |
| 20260505075545 | 71 | 90 | 1.0 | 3.0 | 0.00 | 0.00 | 0.00 | 84 | 1002.6 |
| 20260505075042 | 71 | 105 | 1.0 | 5.0 | 0.00 | 0.00 | 0.00 | 83 | 1002.7 |
| 20260505074539 | 71 | 110 | 0.0 | 2.0 | 0.00 | 0.00 | 0.00 | 83 | 1002.8 |
| 20260505074036 | 72 | 91 | 1.0 | 6.0 | 0.00 | 0.00 | 0.00 | 83 | 1002.7 |
| 20260505073533 | 72 | 109 | 1.0 | 5.0 | 0.00 | 0.00 | 0.00 | 83 | 1003.2 |
| 20260505073032 | 72 | 116 | 1.0 | 7.0 | 0.00 | 0.00 | 0.00 | 82 | 1003.1 |
| 20260505072527 | 72 | 106 | 2.0 | 3.0 | 0.00 | 0.00 | 0.00 | 82 | 1003.2 |
| 20260505072024 | 72 | 91 | 1.0 | 3.0 | 0.00 | 0.00 | 0.00 | 82 | 1003.2 |
| 20260505071519 | 72 | 122 | 2.0 | 3.0 | 0.00 | 0.00 | 0.00 | 81 | 1003.2 |
| 20260505071018 | 72 | 159 | 2.0 | 5.0 | 0.00 | 0.00 | 0.00 | 81 | 1003.5 |
| 20260505070515 | 72 | 103 | 1.0 | 2.0 | 0.00 | 0.00 | 0.00 | 81 | 1003.3 |
| 20260505070010 | 72 | 121 | 2.0 | 3.0 | 0.00 | 0.00 | 0.00 | 80 | 1003.3 |
| 20260505065507 | 72 | 105 | 1.0 | 3.0 | 0.00 | 0.00 | 0.00 | 80 | 1003.5 |
| 20260505065003 | 73 | 95 | 1.0 | 6.0 | 0.00 | 0.00 | 0.00 | 80 | 1003.6 |
| 20260505064500 | 73 | 139 | 1.0 | 8.0 | 0.00 | 0.00 | 0.00 | 79 | 1003.8 |
| 20260505063959 | 73 | 138 | 2.0 | 5.0 | 0.00 | 0.00 | 0.00 | 79 | 1003.5 |
| 20260505063455 | 73 | 93 | 0.0 | 3.0 | 0.00 | 0.00 | 0.00 | 79 | 1003.7 |
| 20260505062951 | 73 | 85 | 3.0 | 8.0 | 0.00 | 0.00 | 0.00 | 78 | 1003.9 |
| 20260505062448 | 73 | 122 | 4.0 | 7.0 | 0.00 | 0.00 | 0.00 | 78 | 1003.7 |
| 20260505061945 | 73 | 116 | 2.0 | 5.0 | 0.00 | 0.00 | 0.00 | 78 | 1003.5 |
| 20260505061443 | 73 | 130 | 3.0 | 9.0 | 0.00 | 0.00 | 0.00 | 78 | 1003.7 |
| 20260505060940 | 73 | 126 | 2.0 | 6.0 | 0.00 | 0.00 | 0.00 | 78 | 1003.8 |
| 20260505060437 | 73 | 185 | 4.0 | 6.0 | 0.00 | 0.00 | 0.00 | 77 | 1003.7 |
| 20260505055934 | 73 | 151 | 2.0 | 7.0 | 0.00 | 0.00 | 0.00 | 77 | 1003.6 |
| 20260505055430 | 73 | 157 | 3.0 | 7.0 | 0.00 | 0.00 | 0.00 | 77 | 1003.6 |
| 20260505054927 | 73 | 105 | 2.0 | 5.0 | 0.00 | 0.00 | 0.00 | 76 | 1003.7 |
| 20260505054424 | 73 | 97 | 1.0 | 10.0 | 0.00 | 0.00 | 0.00 | 76 | 1004.0 |
| 20260505053922 | 73 | 102 | 1.0 | 6.0 | 0.00 | 0.00 | 0.00 | 76 | 1003.9 |
| 20260505053419 | 73 | 95 | 2.0 | 5.0 | 0.00 | 0.00 | 0.00 | 76 | 1003.9 |
| 20260505052916 | 73 | 133 | 2.0 | 7.0 | 0.00 | 0.00 | 0.00 | 75 | 1004.0 |
| 20260505052412 | 74 | 87 | 2.0 | 7.0 | 0.00 | 0.00 | 0.00 | 75 | 1004.2 |
| 20260505051910 | 74 | 140 | 4.0 | 8.0 | 0.00 | 0.00 | 0.00 | 75 | 1004.3 |
| 20260505051407 | 74 | 148 | 2.0 | 3.0 | 0.00 | 0.00 | 0.00 | 75 | 1004.3 |
| 20260505050905 | 74 | 115 | 2.0 | 3.0 | 0.00 | 0.00 | 0.00 | 75 | 1004.5 |
| 20260505050403 | 74 | 39 | 4.0 | 6.0 | 0.00 | 0.00 | 0.00 | 74 | 1004.2 |
| 20260505041330 | 75 | 123 | 2.0 | 6.0 | 0.00 | 0.00 | 0.00 | 72 | 1004.1 |
| 20260505040827 | 75 | 175 | 4.0 | 8.0 | 0.00 | 0.00 | 0.00 | 72 | 1004.4 |
| 20260505040325 | 75 | 146 | 2.0 | 3.0 | 0.00 | 0.00 | 0.00 | 72 | 1004.3 |
| 20260505035822 | 75 | 84 | 1.0 | 3.0 | 0.00 | 0.00 | 0.00 | 72 | 1004.5 |
| 20260505035317 | 75 | 117 | 1.0 | 2.0 | 0.00 | 0.00 | 0.00 | 71 | 1004.3 |
| 20260505034815 | 75 | 107 | 3.0 | 6.0 | 0.00 | 0.00 | 0.00 | 71 | 1004.6 |
| 20260505034311 | 75 | 113 | 3.0 | 5.0 | 0.00 | 0.00 | 0.00 | 71 | 1004.2 |
| 20260505033808 | 75 | 109 | 2.0 | 2.0 | 0.00 | 0.00 | 0.00 | 71 | 1004.4 |
| 20260505033305 | 75 | 78 | 1.0 | 6.0 | 0.00 | 0.00 | 0.00 | 71 | 1004.6 |
| 20260505032804 | 75 | 123 | 3.0 | 10.0 | 0.00 | 0.00 | 0.00 | 71 | 1004.6 |
| 20260505032259 | 75 | 78 | 1.0 | 2.0 | 0.00 | 0.00 | 0.00 | 70 | 1004.4 |
| 20260505031757 | 75 | 152 | 5.0 | 8.0 | 0.00 | 0.00 | 0.00 | 70 | 1004.4 |
| 20260505031253 | 75 | 130 | 4.0 | 6.0 | 0.00 | 0.00 | 0.00 | 70 | 1004.5 |
| 20260505030750 | 75 | 101 | 1.0 | 5.0 | 0.00 | 0.00 | 0.00 | 70 | 1004.2 |
| 20260505030247 | 75 | 100 | 1.0 | 13.0 | 0.00 | 0.00 | 0.00 | 70 | 1004.2 |
| 20260505025742 | 75 | 103 | 1.0 | 7.0 | 0.00 | 0.00 | 0.00 | 70 | 1004.5 |
| 20260505025240 | 75 | 87 | 1.0 | 7.0 | 0.00 | 0.00 | 0.00 | 70 | 1004.6 |
| 20260505024738 | 75 | 116 | 1.0 | 3.0 | 0.00 | 0.00 | 0.00 | 70 | 1004.6 |
| 20260505024235 | 75 | 113 | 1.0 | 2.0 | 0.00 | 0.00 | 0.00 | 70 | 1004.3 |
| 20260505023732 | 75 | 115 | 3.0 | 7.0 | 0.00 | 0.00 | 0.00 | 70 | 1004.4 |
| 20260505023230 | 75 | 99 | 1.0 | 7.0 | 0.00 | 0.00 | 0.00 | 69 | 1004.5 |
| 20260505022727 | 75 | 133 | 2.0 | 6.0 | 0.00 | 0.00 | 0.00 | 69 | 1004.7 |
| 20260505022224 | 75 | 132 | 3.0 | 7.0 | 0.00 | 0.00 | 0.00 | 69 | 1004.6 |
| 20260505021720 | 76 | 111 | 2.0 | 8.0 | 0.00 | 0.00 | 0.00 | 69 | 1004.4 |
| 20260505021218 | 76 | 74 | 1.0 | 3.0 | 0.00 | 0.00 | 0.00 | 69 | 1004.4 |
| 20260505020713 | 76 | 95 | 0.0 | 2.0 | 0.00 | 0.00 | 0.00 | 68 | 1004.4 |
| 20260505020209 | 76 | 92 | 2.0 | 2.0 | 0.00 | 0.00 | 0.00 | 68 | 1004.4 |
| 20260505015706 | 76 | 79 | 1.0 | 3.0 | 0.00 | 0.00 | 0.00 | 68 | 1004.5 |
| 20260505015203 | 76 | 122 | 1.0 | 5.0 | 0.00 | 0.00 | 0.00 | 67 | 1004.5 |
| 20260505014700 | 76 | 130 | 4.0 | 8.0 | 0.00 | 0.00 | 0.00 | 67 | 1004.3 |
| 20260505014157 | 76 | 97 | 2.0 | 7.0 | 0.00 | 0.00 | 0.00 | 67 | 1004.4 |
| 20260505013654 | 76 | 116 | 3.0 | 8.0 | 0.00 | 0.00 | 0.00 | 67 | 1004.6 |
| 20260505013151 | 76 | 141 | 3.0 | 9.0 | 0.00 | 0.00 | 0.00 | 67 | 1004.4 |
| 20260505012649 | 77 | 90 | 1.0 | 5.0 | 0.00 | 0.00 | 0.00 | 67 | 1004.2 |
| 20260505012147 | 77 | 93 | 1.0 | 8.0 | 0.00 | 0.00 | 0.00 | 66 | 1004.3 |
| 20260505011642 | 77 | 117 | 1.0 | 11.0 | 0.00 | 0.00 | 0.00 | 66 | 1004.3 |
| 20260505011139 | 77 | 106 | 2.0 | 11.0 | 0.00 | 0.00 | 0.00 | 66 | 1004.4 |
| 20260505010640 | 77 | 80 | 1.0 | 3.0 | 0.00 | 0.00 | 0.00 | 66 | 1004.4 |
| 20260505010137 | 77 | 154 | 3.0 | 9.0 | 0.00 | 0.00 | 0.00 | 65 | 1004.1 |
| 20260505005633 | 77 | 165 | 3.0 | 13.0 | 0.00 | 0.00 | 0.00 | 65 | 1004.3 |
| 20260505005130 | 77 | 96 | 2.0 | 9.0 | 0.00 | 0.00 | 0.00 | 65 | 1004.2 |
| 20260505004627 | 77 | 89 | 1.0 | 5.0 | 0.00 | 0.00 | 0.00 | 64 | 1004.2 |
| 20260505004124 | 77 | 106 | 5.0 | 11.0 | 0.00 | 0.00 | 0.00 | 64 | 1004.0 |
| 20260505003621 | 77 | 146 | 3.0 | 5.0 | 0.00 | 0.00 | 0.00 | 64 | 1004.2 |
| 20260505003119 | 77 | 134 | 5.0 | 8.0 | 0.00 | 0.00 | 0.00 | 63 | 1004.3 |
| 20260505002614 | 78 | 80 | 1.0 | 5.0 | 0.00 | 0.00 | 0.00 | 63 | 1004.3 |
| 20260505002113 | 78 | 91 | 2.0 | 3.0 | 0.00 | 0.00 | 0.00 | 63 | 1004.6 |
| 20260505001609 | 78 | 135 | 2.0 | 6.0 | 0.00 | 0.00 | 0.00 | 63 | 1004.5 |
| 20260505001107 | 78 | 190 | 5.0 | 9.0 | 0.00 | 0.00 | 0.00 | 62 | 1004.3 |
| 20260505000604 | 78 | 150 | 2.0 | 5.0 | 0.00 | 0.00 | 0.00 | 62 | 1004.3 |
| 20260504235558 | 79 | 98 | 2.0 | 6.0 | 0.00 | 0.00 | 0.00 | 61 | 1004.5 |
| 20260504235055 | 79 | 163 | 5.0 | 7.0 | 0.00 | 0.00 | 0.00 | 61 | 1004.2 |
| 20260504234552 | 79 | 144 | 2.0 | 8.0 | 0.00 | 0.00 | 0.00 | 61 | 1004.7 |
| 20260504234049 | 79 | 135 | 5.0 | 9.0 | 0.00 | 0.00 | 0.00 | 61 | 1004.5 |
| 20260504233544 | 79 | 100 | 2.0 | 5.0 | 0.00 | 0.00 | 0.00 | 61 | 1004.5 |
| 20260504233041 | 79 | 155 | 3.0 | 5.0 | 0.00 | 0.00 | 0.00 | 61 | 1004.6 |
| 20260504232538 | 79 | 130 | 4.0 | 7.0 | 0.00 | 0.00 | 0.00 | 61 | 1004.6 |
| 20260504232036 | 79 | 169 | 4.0 | 10.0 | 0.00 | 0.00 | 0.00 | 60 | 1004.5 |
| 20260504231532 | 79 | 156 | 3.0 | 9.0 | 0.00 | 0.00 | 0.00 | 60 | 1004.6 |
| 20260504231028 | 80 | 151 | 3.0 | 13.0 | 0.00 | 0.00 | 0.00 | 59 | 1004.9 |
| 20260504230525 | 81 | 220 | 5.0 | 11.0 | 0.00 | 0.00 | 0.00 | 58 | 1004.7 |
| 20260504230024 | 81 | 130 | 2.0 | 7.0 | 0.00 | 0.00 | 0.00 | 58 | 1004.5 |
| 20260504225520 | 82 | 134 | 3.0 | 7.0 | 0.00 | 0.00 | 0.00 | 57 | 1004.7 |
| 20260504225017 | 82 | 136 | 3.0 | 6.0 | 0.00 | 0.00 | 0.00 | 56 | 1004.9 |
| 20260504224514 | 81 | 148 | 3.0 | 3.0 | 0.00 | 0.00 | 0.00 | 57 | 1004.9 |
| 20260504224011 | 81 | 135 | 4.0 | 11.0 | 0.00 | 0.00 | 0.00 | 57 | 1005.1 |
| 20260504223508 | 82 | 73 | 2.0 | 5.0 | 0.00 | 0.00 | 0.00 | 56 | 1005.0 |
| 20260504223004 | 82 | 152 | 2.0 | 8.0 | 0.00 | 0.00 | 0.00 | 57 | 1004.7 |
| 20260504222501 | 82 | 111 | 1.0 | 7.0 | 0.00 | 0.00 | 0.00 | 57 | 1004.7 |
| 20260504221958 | 82 | 125 | 2.0 | 7.0 | 0.00 | 0.00 | 0.00 | 56 | 1004.8 |
| 20260504221455 | 82 | 187 | 2.0 | 2.0 | 0.00 | 0.00 | 0.00 | 55 | 1005.0 |
| 20260504220952 | 83 | 164 | 3.0 | 13.0 | 0.00 | 0.00 | 0.00 | 55 | 1005.3 |
| 20260504220449 | 83 | 150 | 3.0 | 5.0 | 0.00 | 0.00 | 0.00 | 55 | 1005.1 |
| 20260504215945 | 82 | 109 | 1.0 | 6.0 | 0.00 | 0.00 | 0.00 | 56 | 1005.0 |
| 20260504215442 | 82 | 83 | 1.0 | 8.0 | 0.00 | 0.00 | 0.00 | 56 | 1005.2 |
| 20260504214939 | 82 | 129 | 4.0 | 6.0 | 0.00 | 0.00 | 0.00 | 55 | 1005.2 |
| 20260504214435 | 81 | 126 | 2.0 | 5.0 | 0.00 | 0.00 | 0.00 | 57 | 1005.5 |
| 20260504213932 | 81 | 71 | 4.0 | 8.0 | 0.00 | 0.00 | 0.00 | 56 | 1005.7 |
| 20260504213428 | 81 | 142 | 6.0 | 10.0 | 0.00 | 0.00 | 0.00 | 56 | 1005.6 |
| 20260504212926 | 82 | 151 | 3.0 | 8.0 | 0.00 | 0.00 | 0.00 | 55 | 1005.6 |
| 20260504212421 | 81 | 148 | 2.0 | 9.0 | 0.00 | 0.00 | 0.00 | 56 | 1005.6 |
| 20260504211919 | 81 | 161 | 2.0 | 7.0 | 0.00 | 0.00 | 0.00 | 56 | 1005.9 |
| 20260504211415 | 81 | 56 | 2.0 | 7.0 | 0.00 | 0.00 | 0.00 | 56 | 1006.2 |
| 20260504210913 | 81 | 81 | 2.0 | 7.0 | 0.00 | 0.00 | 0.00 | 55 | 1006.2 |
| 20260504210410 | 81 | 170 | 6.0 | 9.0 | 0.00 | 0.00 | 0.00 | 55 | 1006.1 |
| 20260504205907 | 82 | 167 | 5.0 | 9.0 | 0.00 | 0.00 | 0.00 | 54 | 1006.4 |
| 20260504205404 | 81 | 150 | 2.0 | 5.0 | 0.00 | 0.00 | 0.00 | 55 | 1006.2 |
| 20260504204902 | 82 | 152 | 7.0 | 9.0 | 0.00 | 0.00 | 0.00 | 54 | 1006.2 |
| 20260504204400 | 81 | 59 | 1.0 | 3.0 | 0.00 | 0.00 | 0.00 | 54 | 1006.2 |
| 20260504203900 | 81 | 125 | 3.0 | 7.0 | 0.00 | 0.00 | 0.00 | 54 | 1006.7 |
| 20260504203356 | 81 | 87 | 1.0 | 11.0 | 0.00 | 0.00 | 0.00 | 55 | 1006.7 |
| 20260504202852 | 80 | 57 | 3.0 | 6.0 | 0.00 | 0.00 | 0.00 | 55 | 1006.7 |
| 20260504202349 | 81 | 103 | 3.0 | 11.0 | 0.00 | 0.00 | 0.00 | 54 | 1006.9 |
| 20260504201845 | 82 | 153 | 2.0 | 8.0 | 0.00 | 0.00 | 0.00 | 53 | 1006.9 |
| 20260504201343 | 81 | 126 | 1.0 | 10.0 | 0.00 | 0.00 | 0.00 | 54 | 1007.2 |
| 20260504200840 | 81 | 109 | 3.0 | 5.0 | 0.00 | 0.00 | 0.00 | 53 | 1007.0 |
| 20260504200337 | 81 | 106 | 6.0 | 9.0 | 0.00 | 0.00 | 0.00 | 52 | 1007.5 |
| 20260504195833 | 80 | 124 | 2.0 | 9.0 | 0.00 | 0.00 | 0.00 | 54 | 1007.2 |
| 20260504195329 | 81 | 48 | 3.0 | 5.0 | 0.00 | 0.00 | 0.00 | 52 | 1007.4 |
| 20260504194826 | 81 | 142 | 1.0 | 2.0 | 0.00 | 0.00 | 0.00 | 53 | 1007.3 |
| 20260504194322 | 81 | 145 | 2.0 | 2.0 | 0.00 | 0.00 | 0.00 | 53 | 1007.6 |
| 20260504193818 | 80 | 111 | 2.0 | 5.0 | 0.00 | 0.00 | 0.00 | 53 | 1007.7 |
| 20260504193316 | 79 | 146 | 2.0 | 6.0 | 0.00 | 0.00 | 0.00 | 54 | 1007.6 |
| 20260504192814 | 80 | 159 | 3.0 | 7.0 | 0.00 | 0.00 | 0.00 | 53 | 1007.7 |
| 20260504192312 | 79 | 115 | 4.0 | 7.0 | 0.00 | 0.00 | 0.00 | 54 | 1008.0 |
| 20260504191810 | 80 | 147 | 6.0 | 9.0 | 0.00 | 0.00 | 0.00 | 53 | 1008.1 |
| 20260504191308 | 81 | 82 | 2.0 | 5.0 | 0.00 | 0.00 | 0.00 | 51 | 1008.4 |
| 20260504190803 | 80 | 147 | 1.0 | 7.0 | 0.00 | 0.00 | 0.00 | 52 | 1008.2 |
| 20260504190259 | 80 | 89 | 5.0 | 9.0 | 0.00 | 0.00 | 0.00 | 51 | 1008.3 |
| 20260504185755 | 80 | 94 | 0.0 | 2.0 | 0.00 | 0.00 | 0.00 | 52 | 1008.5 |
| 20260504185253 | 79 | 136 | 3.0 | 6.0 | 0.00 | 0.00 | 0.00 | 52 | 1008.6 |
| 20260504184749 | 79 | 104 | 2.0 | 7.0 | 0.00 | 0.00 | 0.00 | 52 | 1008.4 |
| 20260504184244 | 79 | 136 | 5.0 | 9.0 | 0.00 | 0.00 | 0.00 | 52 | 1008.4 |
| 20260504183740 | 80 | 141 | 3.0 | 5.0 | 0.00 | 0.00 | 0.00 | 50 | 1008.5 |